TimeCST,TemperatureF,Dew PointF,Humidity,Sea Level PressureIn,VisibilityMPH,Wind Direction,Wind SpeedMPH,Gust SpeedMPH,PrecipitationIn,Events,Conditions,WindDirDegrees,DateUTC
12:51 AM,64.9,59.0,81,29.93,10.0,South,5.8,-,N/A,,Overcast,180,2012-11-26 06:51:00
1:29 AM,64.9,60.1,84,29.94,10.0,Variable,3.5,-,N/A,,Overcast,0,2012-11-26 07:29:00
1:44 AM,64.9,60.1,84,29.94,10.0,South,4.6,-,N/A,,Overcast,180,2012-11-26 07:44:00
1:51 AM,64.9,60.1,84,29.91,10.0,Calm,Calm,-,N/A,,Overcast,0,2012-11-26 07:51:00
2:51 AM,64.9,62.1,90,29.91,10.0,Variable,5.8,-,N/A,,Overcast,0,2012-11-26 08:51:00
3:02 AM,66.0,62.1,87,29.93,10.0,SSW,4.6,-,N/A,,Overcast,200,2012-11-26 09:02:00
3:51 AM,64.9,62.1,90,29.91,10.0,SSW,3.5,-,N/A,,Mostly Cloudy,200,2012-11-26 09:51:00
4:39 AM,66.0,62.1,87,29.94,10.0,Variable,4.6,-,N/A,,Overcast,0,2012-11-26 10:39:00
4:51 AM,66.0,62.1,87,29.91,10.0,SSW,4.6,-,N/A,,Overcast,210,2012-11-26 10:51:00
5:12 AM,66.0,62.1,87,29.94,10.0,SSW,4.6,-,N/A,,Overcast,210,2012-11-26 11:12:00
5:25 AM,66.0,62.1,87,29.94,10.0,SSW,4.6,-,N/A,,Overcast,200,2012-11-26 11:25:00
5:51 AM,66.0,61.0,84,29.93,10.0,Variable,6.9,-,N/A,,Overcast,0,2012-11-26 11:51:00
6:49 AM,64.4,60.8,88,29.96,10.0,SW,3.5,-,N/A,,Scattered Clouds,220,2012-11-26 12:49:00
6:51 AM,64.9,61.0,87,29.94,10.0,SW,3.5,-,N/A,,Scattered Clouds,220,2012-11-26 12:51:00
7:37 AM,64.0,62.1,93,29.98,4.0,SSW,3.5,-,N/A,,Mostly Cloudy,200,2012-11-26 13:37:00
7:51 AM,64.0,62.1,93,29.97,5.0,Calm,Calm,-,N/A,,Overcast,0,2012-11-26 13:51:00
8:51 AM,66.9,62.1,84,29.98,10.0,Variable,4.6,-,N/A,,Overcast,0,2012-11-26 14:51:00
9:21 AM,69.1,62.1,78,30.00,10.0,SW,5.8,-,N/A,,Scattered Clouds,230,2012-11-26 15:21:00
9:51 AM,71.1,62.1,73,29.99,10.0,Variable,6.9,-,N/A,,Partly Cloudy,0,2012-11-26 15:51:00
10:51 AM,75.0,62.1,64,29.97,10.0,Variable,6.9,-,N/A,,Clear,0,2012-11-26 16:51:00
11:51 AM,80.1,60.1,50,29.95,10.0,Variable,5.8,-,N/A,,Clear,0,2012-11-26 17:51:00
12:51 PM,82.9,60.1,46,29.92,10.0,SSW,8.1,-,N/A,,Clear,200,2012-11-26 18:51:00
1:51 PM,84.0,59.0,43,29.90,10.0,Variable,6.9,-,N/A,,Clear,0,2012-11-26 19:51:00
2:51 PM,82.0,59.0,45,29.90,10.0,SSW,9.2,-,N/A,,Clear,200,2012-11-26 20:51:00
3:51 PM,80.1,57.9,47,29.91,10.0,South,4.6,-,N/A,,Clear,190,2012-11-26 21:51:00
4:51 PM,79.0,57.9,48,29.92,10.0,Variable,3.5,-,N/A,,Clear,0,2012-11-26 22:51:00
5:51 PM,77.0,59.0,54,29.95,10.0,SW,4.6,-,N/A,,Clear,220,2012-11-26 23:51:00
5:59 PM,75.9,59.0,56,29.98,10.0,Variable,3.5,-,N/A,Thunderstorm,Thunderstorm,0,2012-11-26 23:59:00
6:38 PM,75.0,60.1,60,30.00,10.0,Calm,Calm,-,N/A,,Clear,0,2012-11-27 00:38:00
6:51 PM,75.0,55.9,51,30.01,10.0,NW,6.9,-,N/A,Thunderstorm,Thunderstorm,310,2012-11-27 00:51:00
7:09 PM,73.0,52.0,48,30.04,10.0,Variable,5.8,-,N/A,,Partly Cloudy,0,2012-11-27 01:09:00
7:51 PM,70.0,54.0,57,30.06,10.0,NNW,5.8,-,N/A,,Clear,340,2012-11-27 01:51:00
8:51 PM,68.0,42.1,39,30.09,10.0,North,8.1,-,N/A,,Clear,360,2012-11-27 02:51:00
9:51 PM,64.9,41.0,42,30.15,10.0,North,9.2,-,N/A,,Scattered Clouds,350,2012-11-27 03:51:00
10:51 PM,63.0,41.0,45,30.20,10.0,NNW,9.2,-,N/A,,Clear,340,2012-11-27 04:51:00
11:51 PM,60.1,42.1,51,30.21,10.0,NNW,10.4,-,N/A,,Clear,340,2012-11-27 05:51:00